Theta_e
301 302 302 303 303 303 303 303 303 303 303 304 305 305 306 305 303 303 306 308 307 305 304 302 301 302 305 312 316 319 320 321 321 321 320 320 319 319 318 318 318 318 318 317 317 317 317 317 317 316 316 316 317 317 317 316 316 315 315 315 315 315 315 314 314 314 314 314 314 315 315 315 316 317 317 317 318 318 319 319 319 320 320 321 321 322
300 301 302 302 303 303 303 303 303 303 304 304 304 305 305 304 303 303 303 304 303 302 302 301 301 301 303 309 314 319 320 320 321 321 320 320 319 319 318 318 318 318 317 317 317 317 316 316 316 316 316 316 316 317 316 316 315 316 315 315 315 315 314 314 314 314 314 314 314 314 314 314 315 315 316 316 316 316 317 317 317 318 319 319 320 320
300 300 300 301 302 302 303 303 303 303 304 304 305 305 305 304 303 302 302 302 301 300 300 301 301 301 302 306 312 317 319 320 320 320 320 320 319 319 319 318 318 317 317 317 316 316 316 316 316 315 316 316 316 316 316 316 315 315 315 315 315 315 314 314 313 313 313 313 313 313 314 314 314 314 314 314 315 315 315 315 316 317 317 318 318 319
300 300 299 299 300 301 301 302 303 303 304 304 304 305 304 303 302 302 301 300 300 299 299 300 300 300 301 302 308 314 319 320 320 320 320 320 319 319 318 318 318 317 317 316 316 316 315 315 315 315 315 315 315 316 316 316 315 315 315 315 315 315 315 314 314 313 313 313 313 313 313 313 313 313 313 313 313 313 314 314 315 315 316 317 317 318
300 300 299 299 299 300 300 301 302 303 304 303 304 304 303 303 302 301 300 300 299 299 299 299 299 300 300 301 305 311 317 319 320 320 320 320 319 319 318 318 318 318 317 317 316 316 316 315 315 315 315 315 315 315 316 316 315 315 315 315 315 315 314 314 314 313 313 313 313 313 312 312 312 312 312 312 312 312 313 313 314 314 315 316 316 317
300 300 300 299 299 299 299 300 302 303 303 303 303 302 302 302 301 301 301 300 300 300 300 300 299 299 300 301 305 311 315 318 319 320 319 319 318 318 318 317 317 317 317 316 316 316 315 315 315 315 315 315 315 315 316 315 315 315 314 314 314 314 314 314 314 314 314 314 313 313 312 312 312 312 312 312 312 312 312 313 313 314 314 314 315 315
300 300 300 299 299 299 299 300 300 301 302 302 302 301 301 301 301 300 300 300 300 301 300 300 299 299 299 301 304 309 312 316 317 318 317 317 316 316 314 314 315 315 316 316 316 316 315 315 315 315 315 315 315 315 315 315 315 315 314 314 313 313 313 314 314 314 314 314 313 313 313 312 312 312 312 311 312 311 312 312 312 313 313 313 314 314
300 300 300 300 299 299 299 299 300 300 300 301 301 301 301 301 300 299 298 298 299 299 300 300 299 298 297 299 301 304 305 306 307 308 309 310 310 309 310 310 311 312 314 315 315 316 316 316 316 316 316 316 315 315 315 315 314 314 313 313 312 313 313 313 314 314 314 313 313 313 312 312 312 311 311 311 311 311 311 311 312 312 312 312 313 313
301 300 301 300 300 300 300 300 299 299 299 300 300 300 300 300 299 298 298 298 298 298 298 299 298 298 297 297 298 300 301 301 300 300 301 301 302 304 306 308 310 311 313 314 314 315 316 315 315 315 316 316 315 315 315 314 314 313 313 312 312 312 312 313 313 313 313 313 313 312 312 312 311 311 311 311 311 311 311 311 311 311 311 312 312 312
300 301 301 301 301 301 301 300 300 299 298 299 300 300 299 299 299 298 298 298 297 297 298 297 297 297 297 296 297 298 300 301 302 304 304 303 304 305 306 307 308 309 310 311 311 311 312 312 313 313 313 314 314 315 314 314 314 313 312 312 312 312 312 312 312 313 313 313 313 313 313 312 312 312 311 311 311 311 311 311 311 311 311 311 311 311
300 300 301 301 302 302 302 301 301 300 298 299 300 300 299 298 298 298 297 297 297 296 297 297 297 297 297 297 296 297 298 298 300 302 303 304 305 306 306 305 306 306 307 307 307 307 308 308 309 309 310 310 311 312 312 312 312 312 312 311 311 311 311 312 312 312 313 313 313 313 313 312 312 312 311 311 311 310 310 310 310 310 310 310 311 311
300 300 300 300 301 302 302 302 301 301 300 300 300 299 298 298 297 297 297 296 296 296 296 296 296 296 296 296 296 296 296 296 296 297 298 299 300 301 301 301 301 301 302 302 303 304 305 305 306 306 306 306 307 308 309 309 310 310 310 310 311 311 311 312 312 312 312 313 313 313 313 312 312 312 311 311 311 310 310 310 310 310 310 310 310 310
298 299 299 299 299 299 300 300 300 300 300 299 298 298 298 298 298 297 297 296 296 296 295 295 295 294 295 295 295 295 295 295 295 296 296 296 296 296 296 296 296 296 297 297 297 298 302 302 303 303 304 304 304 305 306 306 307 307 308 308 309 309 310 311 311 312 312 312 312 313 313 313 312 312 311 311 310 310 310 310 310 310 310 310 310 310
296 297 298 298 298 298 298 298 298 298 298 298 298 298 299 298 298 298 298 297 297 296 295 294 294 293 294 294 295 295 295 295 294 294 294 294 294 294 294 294 294 294 294 293 293 294 298 298 298 298 301 301 301 302 303 304 305 305 306 307 307 308 309 310 310 311 312 312 312 312 312 312 312 312 311 311 310 310 310 310 310 310 310 310 310 310
294 295 296 296 296 296 296 296 296 296 296 297 298 298 298 297 297 297 298 297 296 296 295 294 294 293 293 294 294 294 294 293 293 292 292 293 293 292 292 293 293 292 292 292 292 293 295 295 294 294 295 296 298 300 301 302 304 305 306 306 307 307 308 308 309 310 311 312 312 312 312 312 312 312 311 310 310 310 310 310 310 310 310 310 310 310
293 293 294 294 294 294 294 294 294 294 295 296 296 297 296 296 296 296 296 296 295 295 294 293 293 293 293 293 294 294 293 292 292 291 291 291 292 292 291 291 291 291 291 291 291 291 292 292 292 292 293 296 299 302 303 303 304 306 306 307 307 308 308 308 309 309 310 311 311 311 311 311 311 311 310 310 310 310 309 309 309 310 310 310 310 310
292 292 293 292 293 293 294 293 293 293 293 294 294 295 295 295 295 296 296 295 294 294 293 292 291 291 291 292 293 293 293 292 291 290 289 290 290 291 290 290 290 290 290 290 291 291 291 291 291 292 293 297 300 303 304 304 306 306 307 307 307 307 307 307 307 308 308 308 308 309 309 309 309 309 309 309 309 309 309 309 309 309 309 309 310 310
291 292 292 291 292 292 293 292 292 292 292 292 293 294 295 294 294 294 294 294 293 293 292 292 291 290 289 291 291 291 291 291 290 289 288 288 289 290 289 289 289 289 289 290 290 290 290 290 290 292 295 299 302 304 305 305 306 306 306 305 305 305 306 306 306 306 306 306 306 306 307 307 307 307 308 308 308 308 308 309 309 309 309 309 309 310
291 291 291 291 291 292 292 291 291 291 292 292 292 293 293 293 293 293 293 293 292 291 291 290 289 289 289 290 290 291 291 290 289 288 287 287 288 289 288 289 289 289 289 289 290 290 290 290 292 295 298 301 303 304 305 305 305 305 304 304 304 304 303 303 304 304 304 304 304 305 305 306 306 306 306 307 307 307 308 308 309 309 309 310 310 310
290 290 290 290 291 291 291 290 291 291 291 292 292 292 291 292 292 292 292 292 291 290 289 288 288 288 288 288 289 290 290 290 288 287 286 286 287 287 287 288 288 288 288 289 289 290 290 289 290 293 297 300 302 304 305 304 304 303 302 302 302 301 301 301 302 302 302 302 302 303 304 304 305 305 306 306 306 307 307 308 308 309 309 309 310 310
289 289 290 290 291 290 290 290 291 291 292 292 291 291 290 291 291 291 291 291 290 290 289 288 288 288 288 289 289 290 289 288 287 286 285 285 286 286 287 287 287 287 288 288 289 289 289 288 288 289 294 299 302 303 304 304 303 302 301 301 300 300 300 300 300 300 300 300 301 301 302 302 303 304 304 305 305 306 307 307 308 309 309 309 309 310
289 288 289 290 290 290 290 290 291 292 292 291 291 290 290 289 289 289 289 290 289 289 289 289 289 290 289 289 289 289 289 288 287 286 285 284 284 285 287 287 287 287 287 287 287 287 287 287 287 290 295 300 302 303 303 302 301 301 300 300 300 299 299 299 299 299 299 299 300 300 301 301 302 302 303 304 305 305 306 307 307 308 309 309 309 309
288 288 288 289 289 290 290 290 291 291 292 292 291 290 290 290 289 289 289 289 289 289 289 289 289 289 289 288 288 288 288 288 287 286 285 284 284 285 286 286 286 286 286 286 286 286 286 287 288 290 294 299 301 301 301 301 300 300 299 299 299 298 298 298 298 298 298 299 299 299 300 300 301 302 302 303 304 305 306 307 307 308 308 308 308 309
288 288 288 288 289 289 289 290 290 291 291 291 291 291 291 291 291 291 290 290 289 289 288 288 288 288 287 287 287 287 288 288 288 287 286 285 285 285 285 285 285 286 286 285 285 285 286 286 287 289 292 296 299 299 300 299 299 298 298 298 298 297 297 297 297 298 298 298 299 299 299 300 300 301 301 302 303 304 305 305 306 306 307 307 307 308
288 289 289 289 289 290 290 290 290 291 291 291 291 291 291 291 291 291 291 290 290 289 288 287 286 285 285 286 287 286 286 286 286 286 285 284 284 284 284 284 284 284 285 284 284 285 285 286 287 288 289 292 296 298 298 298 297 297 297 297 297 297 297 297 297 297 297 297 298 298 299 299 299 300 300 301 301 302 303 303 304 304 305 306 306 307
289 290 290 291 291 291 292 291 291 292 291 291 290 290 290 290 289 289 288 288 288 287 286 284 283 283 283 284 284 285 285 285 285 285 284 283 282 282 283 283 283 283 284 284 284 285 285 286 287 287 287 289 292 296 296 296 296 296 296 296 296 296 296 296 296 296 297 297 297 297 298 298 298 299 299 299 300 300 301 301 302 302 303 304 305 306
290 290 291 291 291 291 291 291 292 292 292 292 291 290 289 288 287 286 286 286 286 285 284 282 281 281 282 282 282 283 284 285 285 284 284 283 282 282 282 283 283 283 283 284 284 286 288 287 286 286 286 286 288 291 294 295 295 295 295 295 295 295 295 295 295 295 296 296 296 297 297 297 298 298 298 298 299 299 299 300 300 301 302 303 303 304
289 290 290 290 290 290 291 291 291 292 292 292 292 291 290 287 285 284 284 284 284 284 283 281 280 280 280 280 281 281 282 284 285 285 284 283 282 281 282 282 283 283 283 284 285 286 287 286 285 284 284 285 286 288 291 293 293 293 293 294 294 294 294 294 295 295 295 295 296 296 296 296 297 297 297 298 298 298 299 299 300 300 301 301 300 301
287 288 288 289 289 289 289 289 290 291 292 292 291 290 289 286 285 284 283 283 283 283 282 282 281 280 280 280 280 281 281 283 285 285 284 283 282 281 282 282 283 283 283 283 283 282 282 283 283 282 283 285 286 285 287 289 290 291 291 292 293 293 293 293 294 294 295 295 295 295 295 296 296 296 296 297 297 298 298 298 299 299 299 299 298 299
283 284 284 285 285 286 286 286 287 289 290 289 289 288 287 285 284 283 283 283 283 282 281 281 280 280 279 279 279 279 280 282 284 285 284 282 281 281 282 282 282 282 282 281 279 279 279 281 282 282 282 284 285 284 285 286 287 287 288 289 290 291 292 293 293 294 294 294 294 294 295 295 295 295 296 296 296 297 297 298 297 297 297 296 296 297
280 281 280 281 281 282 283 283 284 286 286 286 286 285 285 284 283 282 282 282 282 281 280 280 280 279 279 278 278 278 279 280 283 285 283 281 280 280 281 280 281 281 281 279 277 276 278 279 281 282 282 283 283 284 284 285 285 285 285 286 287 289 291 292 292 293 293 293 294 294 294 294 294 295 295 295 296 296 296 297 297 296 295 294 294 294
279 279 279 279 280 280 281 282 282 282 283 283 283 283 283 283 282 282 281 281 281 280 280 279 279 279 279 278 278 278 278 279 282 285 283 281 280 279 279 279 279 280 280 278 277 276 276 278 280 281 281 281 282 283 284 284 284 284 285 285 285 287 290 291 291 291 292 292 293 293 293 293 294 294 294 295 295 295 296 296 296 295 294 293 293 293
278 278 278 278 279 279 280 280 280 280 280 280 280 280 281 281 281 281 281 280 280 280 279 279 278 278 278 277 277 278 278 279 282 285 284 281 279 279 278 278 278 278 278 278 278 277 276 277 279 280 280 281 281 282 282 284 284 284 284 284 284 285 288 289 289 289 290 290 291 291 292 293 293 293 293 294 294 295 295 295 296 296 295 293 293 293
277 277 277 277 277 278 278 278 278 278 279 279 279 279 279 279 280 280 280 280 280 280 279 279 278 277 277 277 277 277 278 279 282 285 284 281 279 278 278 277 277 277 276 277 277 277 277 277 278 279 280 280 281 281 281 282 283 283 282 283 283 284 286 287 287 287 288 288 288 289 290 290 291 292 293 293 293 294 294 295 296 296 295 294 294 293
276 276 276 276 276 276 277 277 277 277 277 278 278 278 278 278 278 279 279 279 279 279 279 279 278 278 278 277 277 277 277 278 281 284 285 281 279 278 277 277 277 277 276 276 276 276 276 276 278 279 279 279 280 280 281 281 282 282 282 283 283 283 284 284 285 286 286 287 287 287 287 288 289 290 291 292 293 293 294 295 295 295 295 295 295 294
274 275 275 275 275 275 275 276 276 276 276 276 277 277 277 277 277 277 277 278 278 279 280 279 279 279 279 278 277 277 277 278 280 283 284 281 279 278 277 277 277 278 277 276 276 275 275 277 278 279 279 278 279 279 280 281 281 282 282 283 283 283 284 284 284 284 285 285 286 286 286 287 287 288 289 291 292 293 293 294 294 294 295 295 295 294
274 274 274 273 274 274 275 274 275 275 275 276 276 276 276 276 276 276 276 276 276 277 278 279 279 280 280 279 279 278 278 279 280 280 282 281 280 279 278 279 279 279 278 278 278 278 278 278 278 278 278 277 277 278 280 281 281 281 282 282 283 283 283 284 284 284 284 285 285 286 286 287 287 288 289 291 292 292 293 293 293 293 294 294 294 294
273 273 273 273 273 273 273 273 274 275 275 275 275 275 275 274 274 274 275 275 274 275 275 276 277 277 279 280 280 280 279 279 279 279 280 280 280 281 281 281 281 281 281 281 281 280 280 279 278 278 278 278 279 280 281 281 281 280 281 282 282 283 282 283 283 283 284 285 286 286 287 287 287 287 287 289 289 289 289 289 290 291 292 293 293 294
271 271 272 273 273 272 272 273 274 274 274 275 275 275 275 275 275 275 274 274 275 275 274 275 275 276 276 277 279 281 280 279 279 279 278 278 279 280 280 280 281 281 282 282 282 282 281 280 279 279 278 279 280 280 281 281 281 281 281 282 282 282 282 282 283 283 284 284 285 286 286 286 286 286 286 286 287 286 286 287 288 289 289 289 290 292
271 271 271 273 273 272 272 273 274 274 274 275 275 276 275 275 275 275 274 275 275 275 274 274 275 276 276 278 278 279 278 277 278 278 277 277 277 278 280 280 280 281 282 282 282 282 282 281 280 280 280 280 280 280 281 281 281 281 282 282 281 281 282 283 283 283 283 283 283 284 284 284 285 285 285 285 285 285 285 286 286 288 288 288 288 288
271 270 271 272 273 273 274 274 274 274 274 274 273 273 274 274 274 274 274 274 275 275 275 275 275 274 274 274 274 274 276 276 277 278 276 276 276 277 278 280 281 281 282 282 282 282 282 281 281 281 281 281 281 281 281 281 282 283 283 282 282 282 283 284 283 283 282 282 282 282 284 284 285 285 285 285 285 285 286 286 286 287 288 287 287 287
272 271 271 271 272 272 272 273 273 274 274 272 272 272 272 273 273 272 273 272 273 273 274 273 273 272 272 272 272 273 273 274 276 277 277 276 275 276 276 279 280 280 280 281 281 281 282 282 281 281 281 281 281 281 280 281 283 283 283 283 282 282 283 283 282 281 280 281 282 283 284 284 283 283 284 284 285 285 286 286 287 288 288 288 287 287
271 271 271 271 271 271 273 273 273 273 273 271 271 271 271 272 272 273 273 272 272 273 274 274 273 272 271 270 271 271 272 272 273 275 276 275 275 275 275 277 279 280 280 279 279 280 280 281 281 281 281 282 282 282 281 282 282 283 283 282 281 280 279 279 279 280 281 281 282 282 282 283 283 283 284 284 285 285 286 287 288 289 289 288 287 287
271 271 270 270 271 271 272 272 271 271 271 270 270 271 270 270 272 273 273 272 273 273 273 272 271 270 270 269 270 270 271 271 272 273 275 278 278 277 276 276 277 278 279 278 278 278 278 278 279 281 282 282 281 281 280 280 280 280 280 281 280 279 278 279 280 280 281 281 281 282 282 282 283 283 283 284 284 285 285 285 286 286 287 288 287 287
269 270 270 270 271 271 270 270 270 270 269 270 270 269 270 270 272 273 272 273 274 274 272 272 272 270 269 269 270 271 270 271 272 273 274 277 280 280 277 276 276 276 277 277 277 277 276 276 277 278 280 280 279 279 279 279 279 279 280 281 280 280 279 280 280 280 280 280 281 281 282 282 282 282 282 283 283 284 284 285 285 285 286 287 287 287
268 268 268 268 268 268 269 269 269 269 268 269 269 270 270 270 270 271 272 274 274 274 273 274 273 271 269 270 270 270 270 270 271 272 273 274 274 275 276 277 277 277 276 276 276 276 276 276 276 277 278 278 277 277 277 277 277 277 278 278 279 278 279 279 279 279 280 280 280 281 281 281 281 281 282 282 283 283 284 285 285 285 286 286 287 287
266 266 266 266 266 267 267 268 268 268 268 268 269 269 270 269 270 271 272 273 273 273 274 274 273 272 271 271 270 270 270 270 271 271 272 273 273 274 274 275 277 277 277 277 276 276 276 276 276 276 276 275 275 275 275 276 276 276 276 277 277 277 277 278 279 279 280 280 280 280 280 280 281 281 282 282 283 283 284 284 285 285 286 286 287 287
267 266 266 266 265 265 266 266 266 266 266 267 268 269 270 270 272 274 273 272 272 273 273 273 272 272 271 272 272 272 272 272 272 272 272 273 273 274 274 274 275 276 277 278 278 278 277 277 277 276 275 274 274 274 274 275 275 275 276 276 277 277 278 278 279 279 280 280 280 280 280 281 281 282 281 281 281 281 282 283 284 284 285 286 286 287
266 266 266 265 265 264 265 265 265 265 266 267 268 269 269 271 273 273 272 271 271 272 272 272 272 272 271 272 273 274 274 273 273 272 271 273 274 274 274 274 275 275 275 275 275 276 276 277 277 278 278 276 275 274 274 275 275 276 276 277 277 278 279 280 280 280 281 281 281 281 281 281 281 280 279 279 279 279 279 281 282 283 284 285 286 286
266 266 266 265 265 264 264 265 266 266 266 267 267 268 268 269 270 270 270 270 271 271 272 272 272 272 271 272 272 273 273 273 273 273 272 274 275 274 274 275 275 275 274 273 273 273 273 273 275 277 280 280 279 277 275 275 275 276 277 277 278 278 279 280 280 281 282 281 281 280 279 279 279 279 278 278 277 277 278 279 280 281 282 283 284 285
266 266 265 265 264 264 264 265 265 266 267 268 269 270 270 269 268 268 268 269 269 270 270 271 271 271 271 272 272 273 273 273 273 273 273 275 275 275 275 275 274 273 272 272 272 272 271 271 271 272 275 280 281 280 276 275 276 277 277 276 276 276 277 277 278 279 279 279 279 278 278 278 278 278 277 277 277 277 277 278 278 279 281 282 282 283
Wind_Speed
1 0 0 1 2 3 3 4 5 5 5 4 4 4 4 4 4 4 6 6 6 6 5 4 4 3 4 5 7 8 9 9 9 9 8 7 7 6 6 5 5 5 5 4 4 4 3 4 4 4 4 4 4 4 4 4 4 4 4 4 4 3 3 4 4 5 5 6 7 7 8 9 9 10 11 11 12 12 13 13 13 14 14 14 14 15
1 1 1 1 2 3 3 3 4 5 6 5 5 4 4 4 3 3 3 4 5 5 5 5 4 4 3 4 6 8 9 9 9 9 8 7 7 6 6 6 6 5 5 5 4 4 4 4 4 4 4 4 4 4 4 4 4 4 4 4 4 4 3 3 4 4 5 5 6 7 7 8 9 10 10 11 11 12 12 13 13 13 14 14 15 15
1 1 0 0 1 2 3 4 4 4 6 5 5 5 5 5 4 3 3 3 3 3 4 4 4 4 4 4 5 7 8 9 9 9 8 8 7 6 6 6 6 6 5 5 5 4 4 4 4 4 4 4 4 4 4 4 5 5 5 5 5 4 4 3 3 4 4 5 6 6 7 8 9 9 10 10 11 11 12 12 13 13 14 14 14 15
2 2 1 1 1 1 2 3 3 3 4 4 4 5 6 5 4 3 3 3 3 2 2 3 4 4 4 3 4 6 8 9 9 9 9 8 8 7 7 6 6 6 5 5 5 5 5 5 5 5 5 4 5 5 5 5 5 5 5 5 5 5 4 4 3 4 4 5 6 6 7 8 8 9 10 10 11 11 12 12 13 13 14 14 14 15
3 3 2 2 2 2 2 2 2 2 2 2 3 4 5 4 3 3 3 3 3 3 2 2 3 4 3 3 3 5 7 8 9 9 9 8 8 7 6 6 6 5 5 5 5 5 5 6 6 6 5 5 5 5 5 5 6 6 6 6 5 5 4 4 4 4 4 5 5 6 7 8 9 9 10 11 11 12 13 13 13 14 14 14 15 15
3 3 2 2 2 2 1 1 1 1 1 1 2 3 3 3 3 3 3 3 3 3 2 2 2 2 3 3 3 4 6 7 8 8 8 7 6 5 4 4 4 5 5 5 6 6 6 7 7 7 6 6 6 6 6 6 6 6 6 6 6 5 5 5 4 4 4 5 5 6 7 7 8 9 10 11 12 12 13 14 14 15 15 15 15 15
2 1 1 1 1 1 1 1 1 1 1 1 1 1 2 2 2 2 2 2 3 2 2 1 1 2 2 2 3 3 4 4 5 5 5 4 3 2 2 2 3 4 5 5 6 7 7 8 8 7 7 7 6 6 6 6 6 6 6 6 6 6 6 5 5 5 5 5 5 6 6 7 8 8 9 10 11 12 13 13 14 15 15 15 16 16
1 1 1 1 1 1 1 1 1 1 1 1 1 1 1 1 1 1 1 1 2 2 2 2 2 2 2 2 3 4 4 4 4 4 3 2 1 0 1 2 3 4 4 5 6 6 7 7 7 7 7 7 7 7 6 6 6 6 6 6 6 6 6 6 6 6 6 6 6 6 6 7 7 8 8 9 10 11 12 13 13 14 15 15 16 16
1 1 1 0 1 1 1 1 1 1 1 1 1 2 2 2 1 1 1 1 1 2 2 2 1 1 1 1 2 3 4 4 4 3 2 1 0 0 1 3 3 4 5 4 4 4 4 4 5 5 5 5 6 6 6 6 6 6 6 6 6 6 7 7 7 7 7 7 7 7 7 7 8 8 8 9 9 10 11 12 12 13 14 14 15 16
2 2 2 1 1 1 1 1 1 1 1 1 1 1 2 2 2 2 1 0 1 1 1 1 2 1 0 1 1 2 3 4 3 3 3 2 2 2 3 4 5 6 7 6 6 7 7 7 7 7 6 5 5 5 6 6 6 6 7 7 7 7 7 8 8 8 8 8 8 8 8 8 8 8 8 8 9 9 10 11 12 12 13 14 14 15
2 2 2 2 1 1 2 1 1 1 2 2 2 2 2 1 2 3 4 3 1 0 1 1 1 2 1 1 1 1 2 2 3 3 4 4 4 4 5 6 7 8 9 9 9 10 10 10 10 9 9 8 8 8 7 7 7 7 7 8 8 8 8 9 9 9 9 9 9 9 9 9 9 9 9 9 9 9 10 10 11 12 12 13 14 15
2 2 2 2 2 2 2 2 2 2 2 2 3 3 3 2 1 2 3 3 2 1 1 1 1 1 1 1 1 1 2 2 2 2 3 4 4 4 4 5 6 7 7 8 8 9 10 10 10 9 9 8 8 8 8 7 7 7 7 8 8 9 9 10 10 10 10 11 11 11 10 10 10 10 9 9 9 9 9 10 10 11 12 13 14 15
1 1 2 1 2 2 2 2 2 2 2 2 2 2 2 2 1 1 2 2 1 1 1 1 1 1 1 1 1 1 2 2 2 2 2 2 3 3 2 3 3 4 4 5 5 6 7 8 8 8 7 7 7 7 8 7 8 8 8 8 9 9 10 10 11 11 11 11 11 11 11 11 10 10 10 10 10 10 10 10 10 11 12 13 14 15
2 2 1 2 2 2 2 2 3 3 3 2 2 2 2 2 1 1 1 2 2 2 2 2 2 2 2 3 2 2 2 2 2 2 2 2 2 2 1 2 2 2 3 3 3 4 5 5 5 5 6 6 6 7 7 8 9 9 10 10 10 10 10 10 11 11 11 12 11 11 11 11 11 11 10 10 10 10 10 10 11 11 12 14 15 15
2 2 2 2 2 2 2 2 3 3 3 3 2 2 2 2 2 2 2 2 2 2 2 2 2 2 2 3 3 2 2 2 2 2 2 1 1 2 1 1 2 2 3 3 3 3 3 3 3 3 4 5 6 7 8 9 10 11 11 11 11 11 10 10 10 10 10 10 11 11 11 11 11 11 11 11 11 11 11 11 11 12 13 14 15 16
1 2 2 2 2 2 2 2 3 3 3 2 2 2 3 3 3 2 2 2 2 2 2 1 1 1 1 2 3 3 3 3 3 2 2 1 2 2 1 1 2 2 2 2 2 2 2 2 2 2 3 6 8 10 10 10 11 11 11 11 10 10 10 9 9 8 8 8 9 9 9 10 10 10 10 11 11 11 11 11 12 13 14 15 16 16
2 2 2 2 2 2 3 3 2 2 2 2 2 2 3 3 2 2 2 2 2 1 0 1 1 1 1 1 2 3 4 3 2 2 1 2 2 2 1 1 2 2 2 1 1 1 2 2 2 2 3 6 8 10 10 9 9 9 9 9 9 10 10 10 9 9 8 8 8 9 9 9 10 10 10 11 11 11 12 12 13 13 14 15 16 17
2 2 2 2 2 2 3 2 2 2 2 2 3 3 3 3 3 3 2 2 2 1 0 0 1 1 2 1 1 2 4 3 2 2 2 2 2 2 1 1 1 1 1 1 1 1 1 1 2 2 4 6 8 8 8 7 8 8 9 10 11 11 11 11 11 11 11 11 11 11 11 11 11 11 11 11 11 11 11 12 13 13 14 15 16 16
3 3 3 2 2 2 3 2 2 3 3 3 3 3 3 3 3 3 3 3 2 1 1 1 1 1 1 1 1 1 3 3 2 1 1 2 3 2 1 0 1 1 1 1 1 1 1 1 2 3 4 6 6 6 6 7 9 10 11 11 12 12 12 13 13 14 14 14 13 12 12 11 11 11 10 11 11 11 11 12 12 13 14 14 15 16
3 3 3 2 2 2 3 3 3 3 3 3 2 2 2 2 3 3 3 2 2 1 1 1 1 1 1 1 1 2 2 2 2 1 1 2 2 2 2 1 2 1 1 1 1 1 1 1 2 2 3 4 5 6 8 9 10 11 11 12 12 13 14 15 15 15 15 15 14 13 13 12 12 11 11 11 12 12 12 12 12 13 14 14 15 16
3 3 3 2 2 2 2 2 2 3 3 2 2 2 2 2 2 2 2 1 1 1 1 1 1 1 1 2 2 2 1 1 1 0 1 2 2 3 2 1 2 2 0 1 1 1 1 1 0 1 2 3 5 7 9 9 10 10 11 12 13 14 15 15 15 15 15 15 15 14 14 14 13 13 13 13 13 12 12 13 13 13 14 15 15 16
3 3 3 3 2 2 2 1 2 2 2 2 2 2 2 1 1 1 1 1 1 2 2 1 1 1 1 2 2 2 1 2 2 2 1 1 2 3 2 1 2 2 0 2 2 1 0 0 0 0 1 5 7 8 9 9 9 10 11 13 13 14 14 14 14 14 14 14 14 15 15 15 15 15 14 14 14 13 13 13 14 14 15 16 16 16
3 2 2 2 2 1 1 0 1 1 1 1 1 1 1 1 1 1 1 1 1 1 1 1 1 1 1 2 2 3 2 2 3 2 2 1 2 3 2 2 2 2 0 2 2 2 1 1 0 1 2 5 7 8 9 9 10 11 12 13 13 13 13 13 13 14 14 14 15 15 15 16 16 16 16 15 15 15 14 14 15 15 16 17 17 17
2 2 1 1 0 1 1 1 1 1 1 1 1 1 1 1 1 0 0 1 1 1 1 1 1 1 2 2 2 2 2 1 2 2 2 2 2 2 2 2 2 1 1 2 2 1 1 1 1 1 2 4 6 8 9 10 11 11 12 12 13 13 13 13 13 14 14 15 15 15 16 16 17 17 17 17 17 17 16 16 16 17 17 18 17 17
2 1 1 1 2 2 2 2 2 2 1 2 2 2 2 2 1 1 1 1 1 1 0 1 1 1 2 2 2 2 1 1 1 1 2 1 1 1 1 1 1 1 1 2 2 1 1 1 1 1 1 3 5 8 9 11 11 12 12 13 13 13 13 14 14 15 15 15 16 16 16 17 17 18 18 18 18 18 18 18 18 18 18 18 17 16
4 4 3 2 3 3 3 3 3 3 2 1 2 2 2 2 1 1 0 0 0 0 1 1 0 1 2 2 2 2 2 2 2 1 1 1 1 1 1 1 1 1 2 2 2 1 1 1 2 2 2 2 4 7 10 11 12 13 13 14 14 14 15 15 15 15 16 16 16 17 17 17 18 18 18 19 19 19 19 19 19 19 19 17 16 14
9 8 7 7 7 7 7 7 6 5 4 3 2 1 2 2 2 2 1 0 0 1 2 1 0 1 2 2 2 2 2 2 3 2 1 2 2 2 2 2 2 2 2 2 2 2 1 1 1 1 1 2 3 6 10 12 13 14 14 15 15 15 16 16 16 16 17 17 17 17 17 18 18 18 19 19 19 19 19 20 20 19 18 15 13 11
11 10 10 10 10 10 9 9 8 7 6 7 6 5 4 3 2 2 0 0 0 1 2 2 1 1 1 2 2 1 2 3 3 3 2 1 2 2 2 2 2 3 2 2 2 2 2 1 1 1 1 2 2 4 8 11 12 13 14 15 15 16 16 17 17 17 17 17 17 18 18 18 18 18 19 19 19 19 20 20 19 18 15 12 9 7
10 11 11 11 11 11 10 10 9 9 11 13 14 13 9 5 4 3 2 2 1 1 2 1 1 1 2 2 2 1 2 3 4 4 3 2 2 1 2 2 3 3 3 2 2 3 3 2 2 1 1 2 3 4 5 8 9 10 11 13 15 15 16 17 17 17 17 18 18 18 18 18 18 18 19 19 19 19 20 20 18 15 11 9 7 6
7 8 8 9 9 9 8 8 8 10 14 16 16 14 10 7 5 4 4 3 3 3 2 2 1 0 1 1 1 1 2 3 4 4 3 2 2 2 2 2 3 3 2 2 2 2 3 3 2 2 2 3 4 4 4 5 5 6 7 10 11 12 14 16 16 17 17 17 18 18 18 18 18 18 18 18 19 19 19 20 17 13 8 7 6 6
4 5 5 6 6 6 6 6 7 9 12 13 13 11 9 7 6 5 5 5 4 3 3 2 2 2 1 1 1 1 1 2 4 5 4 2 2 1 2 2 2 2 2 2 1 1 2 2 2 2 2 3 4 4 4 4 4 4 5 6 6 8 11 13 14 15 15 16 17 18 18 18 18 18 18 18 18 19 19 19 17 12 7 7 6 6
4 4 4 4 4 4 5 5 5 6 7 8 8 8 8 7 6 5 5 5 4 3 3 2 2 2 1 1 0 0 0 1 3 5 4 2 1 1 1 1 1 1 1 2 2 1 1 2 2 2 3 3 3 4 4 4 4 4 4 4 4 5 9 10 11 12 12 14 15 16 17 18 18 18 18 18 18 18 19 19 17 13 8 7 7 7
4 4 4 4 4 4 5 5 5 5 6 6 6 6 6 6 6 5 4 4 3 3 3 2 2 2 2 1 0 0 1 1 3 6 6 3 1 1 1 1 1 1 1 1 1 2 2 2 2 2 3 3 3 3 3 4 4 4 4 4 3 4 6 7 8 8 9 10 11 13 14 15 16 17 17 18 18 18 18 19 18 15 11 7 7 7
4 4 4 4 4 4 5 5 5 5 5 5 5 5 4 4 4 4 4 3 3 2 2 2 2 2 2 1 1 1 1 1 3 6 5 3 1 0 1 1 1 1 1 1 0 0 1 2 2 3 3 3 2 2 3 3 4 3 3 3 3 3 4 5 5 6 7 7 7 8 9 10 12 14 15 16 16 17 18 19 19 18 16 11 8 7
4 5 5 4 4 4 5 5 5 5 5 4 4 4 4 4 3 3 3 3 3 2 2 1 1 1 1 1 1 1 2 2 3 5 4 2 1 0 0 0 0 0 1 1 1 1 1 2 2 3 3 3 3 2 2 3 3 3 3 3 3 3 4 4 4 5 6 6 6 6 6 6 7 9 10 13 15 17 18 19 19 19 18 16 13 9
4 4 5 4 4 4 4 5 5 4 4 4 3 3 3 3 3 3 3 3 3 3 3 2 1 0 0 0 1 1 2 3 3 4 4 1 1 0 0 0 0 0 0 0 1 1 1 2 3 3 3 3 3 3 2 2 2 2 3 3 3 3 4 4 4 4 4 5 5 5 5 6 6 7 8 12 15 17 18 18 18 18 18 18 17 14
4 4 4 4 4 4 4 4 4 4 4 3 3 3 4 3 3 3 3 3 3 3 3 3 3 2 2 1 1 1 2 3 3 3 3 2 1 0 0 1 1 0 0 1 1 2 2 3 3 4 3 3 3 3 3 2 2 3 3 3 3 4 4 4 4 4 4 5 5 6 6 6 6 7 8 11 13 14 15 16 16 17 18 18 18 18
3 3 3 3 3 3 3 3 3 3 3 3 3 4 4 3 3 3 3 3 3 3 3 3 3 4 5 4 3 3 2 3 3 3 3 2 2 1 2 2 2 2 2 2 2 2 2 3 3 4 3 3 3 4 4 3 3 3 3 3 3 4 4 4 4 4 4 5 6 6 7 6 6 6 7 8 8 9 9 10 11 13 15 15 16 17
3 3 3 3 3 3 3 3 3 3 3 3 3 3 3 3 2 2 2 2 2 2 2 2 3 3 4 4 4 5 4 4 4 4 4 3 2 2 2 2 2 2 2 2 2 2 3 3 3 3 3 4 4 4 4 4 4 4 4 4 4 3 3 3 4 4 4 5 6 6 6 6 6 5 6 6 6 6 7 7 8 9 10 9 10 13
2 2 3 3 3 2 2 2 3 3 3 3 3 3 2 2 2 2 2 2 2 2 2 2 2 2 3 3 3 4 4 4 3 3 2 2 1 1 2 2 2 2 2 2 2 2 3 3 4 4 4 4 4 4 4 4 4 5 6 5 4 3 3 4 4 4 4 4 5 5 6 6 6 6 6 6 6 6 6 6 7 7 7 6 6 7
2 2 2 2 3 3 3 3 3 3 3 3 3 3 2 2 2 2 3 3 3 2 2 3 3 3 3 3 3 3 3 4 4 3 2 2 1 1 1 2 2 3 2 2 2 2 3 3 4 4 4 4 5 5 5 5 6 7 7 6 5 5 5 5 5 4 4 4 5 5 7 7 7 7 7 7 6 6 6 6 6 7 6 5 4 5
3 2 2 2 2 2 3 3 4 4 4 3 3 3 3 3 3 3 3 3 3 3 3 3 3 3 3 3 3 4 4 4 4 4 3 2 2 1 1 2 2 2 2 2 2 2 2 3 3 4 4 4 4 4 5 5 5 6 6 5 5 6 6 5 4 4 4 5 6 6 7 7 7 7 7 7 7 6 6 6 7 8 7 5 4 4
2 2 1 1 2 2 2 3 4 4 4 4 3 3 3 3 3 3 3 2 3 3 3 3 3 2 2 3 3 4 4 4 4 4 4 3 2 1 1 2 2 3 3 3 3 3 3 3 3 3 3 3 3 4 5 5 5 5 5 5 5 5 4 4 3 4 4 5 6 6 6 7 6 6 7 7 7 6 6 7 8 8 8 6 5 4
1 1 1 1 2 2 2 3 3 3 3 3 4 4 3 3 3 3 3 3 3 4 3 3 2 2 2 2 3 3 4 4 4 4 4 4 4 3 2 2 2 3 3 2 2 3 3 3 3 3 3 3 3 4 4 5 5 5 5 5 5 4 4 4 4 5 5 5 5 6 6 6 6 6 6 6 6 6 6 5 5 5 6 5 5 5
1 2 2 2 2 2 2 3 3 3 3 3 3 3 3 4 4 4 3 3 4 4 3 3 3 3 2 2 2 3 3 4 4 4 4 5 6 5 3 3 3 3 2 2 2 2 2 2 3 3 3 3 3 3 4 4 5 5 6 6 5 5 5 5 5 5 5 6 6 6 7 6 6 6 6 6 6 6 6 6 6 6 5 5 5 5
2 2 2 3 3 2 2 2 3 3 3 3 3 3 3 3 3 3 3 3 3 4 3 3 3 3 3 3 3 3 3 3 3 3 3 4 4 4 3 3 3 3 3 2 2 2 2 2 3 3 3 3 3 3 4 4 4 4 4 5 5 4 5 5 5 5 6 6 6 6 7 6 5 5 6 6 6 6 5 6 6 6 6 5 5 5
2 3 3 3 2 2 2 2 2 2 3 3 3 3 2 3 3 3 3 3 3 3 4 4 4 3 4 4 4 3 3 3 3 3 3 3 3 3 3 3 3 3 3 3 3 3 3 3 3 3 2 3 3 3 3 3 3 4 4 4 4 4 4 4 4 5 5 5 5 5 5 5 5 5 5 5 5 6 5 5 5 5 5 6 6 6
2 2 2 2 2 2 2 2 2 2 2 2 2 2 3 3 4 4 3 3 3 3 4 3 3 3 3 3 4 4 4 4 4 3 3 3 3 3 3 3 3 3 3 3 4 4 4 4 3 3 2 2 3 3 3 3 3 4 4 4 4 4 5 5 4 4 5 5 5 4 4 4 5 6 7 7 6 6 6 6 6 6 5 6 6 6
2 2 2 2 2 2 2 2 2 2 2 2 2 2 3 4 5 5 4 3 3 3 3 3 3 3 3 4 4 5 5 4 4 3 3 3 3 3 3 3 3 3 3 3 3 3 3 3 3 4 4 3 3 4 4 4 4 4 4 4 4 4 5 5 4 4 4 4 4 4 4 5 5 5 6 7 8 8 7 7 7 6 6 6 6 6
2 2 1 1 2 2 2 2 2 2 2 2 2 2 2 3 3 3 3 3 3 3 3 3 3 4 4 4 4 5 5 4 3 3 3 3 3 3 3 3 3 3 3 3 3 3 3 3 3 3 4 4 4 4 3 3 3 3 3 3 3 3 4 4 4 4 5 5 5 6 6 6 5 5 5 6 7 8 8 8 7 7 6 6 6 7
2 2 1 1 1 2 2 2 2 2 3 3 3 3 3 3 2 2 2 3 3 3 3 3 3 4 4 4 4 4 4 3 3 3 3 3 3 3 3 3 3 3 3 3 3 3 3 3 3 4 5 6 5 4 2 2 2 3 3 3 2 2 3 3 4 4 5 5 5 5 6 6 5 5 4 5 6 8 8 8 8 7 7 6 7 8
Wind_Direction
231 261 45 146 154 160 171 165 158 156 166 175 180 179 172 159 153 155 162 163 163 163 163 158 155 157 167 178 180 179 177 175 173 172 173 175 179 183 188 192 196 199 202 205 209 214 221 229 236 241 246 247 250 252 255 262 272 281 290 294 299 305 311 317 320 322 323 325 326 327 328 328 328 328 328 328 328 327 327 325 323 321 319 316 313 311
265 322 2 135 157 161 174 177 168 162 167 176 183 184 176 168 162 157 157 162 162 159 155 148 145 145 147 162 171 175 175 174 173 172 173 177 183 189 195 201 204 206 208 210 214 219 225 231 235 240 243 245 246 247 246 251 258 265 271 276 279 284 290 298 306 311 315 320 322 324 326 326 327 327 327 328 327 327 326 324 322 320 318 316 313 311
234 267 301 224 160 164 173 188 186 176 170 178 184 185 177 172 168 163 159 162 156 148 145 145 143 140 139 149 165 173 174 174 173 173 174 178 185 193 202 208 212 214 215 217 221 226 232 237 240 241 242 244 245 246 245 248 252 256 260 263 265 268 271 277 288 298 306 313 318 321 323 324 325 325 326 326 326 325 324 323 321 319 318 316 314 312
210 209 209 196 185 183 183 191 196 194 183 180 180 180 175 172 169 165 159 151 143 136 138 141 138 134 132 139 158 170 174 174 174 174 175 180 187 196 206 213 219 222 224 225 229 235 242 247 249 250 249 248 248 248 249 250 251 253 255 257 258 259 259 263 273 284 295 303 310 314 318 319 321 322 322 323 323 323 323 322 321 320 319 318 316 314
212 205 192 174 184 207 215 192 188 190 186 172 170 171 172 168 162 154 144 136 131 131 133 130 127 126 126 130 151 168 173 174 175 176 177 181 187 197 207 218 227 232 235 236 238 242 247 251 255 256 256 255 254 252 252 253 253 253 254 255 255 255 254 257 263 271 282 291 298 304 308 312 315 316 318 319 320 321 322 322 322 321 321 320 319 317
217 205 181 167 177 193 208 175 152 142 133 143 153 156 157 151 141 134 130 131 129 127 125 116 113 112 115 122 144 164 169 170 172 173 174 177 184 195 211 227 241 249 251 249 247 247 248 250 254 256 257 257 256 255 254 254 254 255 255 254 254 254 254 256 259 263 270 277 284 291 297 302 305 308 312 314 316 318 319 320 321 321 322 322 321 320
226 211 148 147 156 169 160 138 133 132 131 132 138 138 130 117 109 112 123 131 128 119 110 85 69 72 87 103 118 132 141 144 147 148 149 154 166 190 226 260 275 277 272 263 256 252 250 251 253 254 256 256 255 254 253 254 255 256 256 256 255 254 254 255 257 259 262 266 271 276 282 287 293 297 301 305 309 312 314 316 318 319 321 322 322 321
263 302 45 99 103 88 60 60 73 101 122 132 137 137 125 99 80 71 76 87 94 98 98 78 56 46 57 85 98 102 103 104 100 99 110 115 120 102 323 331 327 317 301 284 272 265 260 260 261 262 260 258 256 255 254 255 257 258 259 259 258 258 257 257 257 257 258 259 261 264 268 274 279 284 289 294 299 303 307 310 313 316 318 320 321 321
340 331 337 62 105 95 38 6 5 26 68 109 132 141 145 141 123 67 47 48 53 66 91 101 91 64 30 64 92 103 107 109 109 109 112 111 105 15 12 18 9 358 346 334 323 313 307 305 302 296 286 279 272 268 266 267 267 267 268 267 265 264 263 262 260 260 258 258 258 260 261 265 269 273 278 283 289 294 300 304 308 311 314 316 318 319
359 340 324 337 69 96 92 11 347 356 32 63 81 108 132 148 151 150 139 131 42 32 62 109 124 129 95 32 61 94 107 108 108 104 92 57 44 49 55 57 51 44 37 33 29 26 22 14 7 359 347 334 321 311 301 296 292 287 283 279 276 273 271 268 266 264 261 260 260 259 260 263 266 269 274 278 283 289 294 299 304 307 310 312 314 316
354 335 326 337 5 39 59 26 359 357 25 44 45 45 52 97 140 160 171 178 179 66 37 80 119 132 131 60 37 56 77 75 65 54 47 34 37 50 63 67 66 63 59 53 48 43 36 30 25 20 11 4 356 346 334 326 316 307 299 294 288 282 278 274 271 268 265 263 262 261 262 264 266 270 274 278 283 288 292 296 300 304 306 309 311 312
348 326 316 340 6 19 21 6 358 2 22 33 29 22 18 27 71 144 165 170 168 154 103 53 48 72 103 94 68 53 63 63 52 37 32 26 27 38 55 61 63 63 61 57 50 42 36 30 25 20 15 8 1 352 343 335 326 317 309 302 296 289 284 279 274 271 267 265 263 263 263 265 268 272 277 281 285 289 293 296 299 301 304 306 307 309
1 327 306 338 14 27 18 6 9 19 28 35 29 18 359 356 12 72 123 127 117 80 40 51 31 14 23 48 61 68 72 71 62 51 43 27 14 12 27 43 48 50 52 51 43 34 29 23 17 11 6 359 351 344 338 332 327 321 316 310 303 296 290 283 278 273 269 266 265 264 264 267 270 274 279 284 288 292 295 296 298 300 302 303 304 306
8 354 359 35 49 47 30 28 40 48 44 39 33 20 357 343 355 29 76 68 48 23 12 33 30 14 11 21 26 41 76 75 66 53 50 28 1 347 3 34 41 42 47 44 33 20 16 14 7 359 353 346 339 334 331 329 327 324 321 316 311 305 298 289 283 277 272 269 267 266 266 269 273 277 283 288 292 295 298 299 299 300 301 302 302 303
22 18 37 49 53 48 33 34 42 45 41 33 26 19 11 6 9 23 61 63 49 30 18 29 30 26 26 21 16 20 57 70 64 50 41 10 326 313 337 36 40 39 47 43 26 7 5 8 358 343 336 332 329 329 331 331 328 324 323 320 317 314 311 303 296 288 281 277 274 272 272 275 279 284 291 296 300 303 304 303 302 301 301 301 301 301
40 43 54 59 58 53 45 41 42 40 33 25 23 25 29 21 15 20 54 69 63 48 37 57 57 45 31 21 17 21 41 58 60 50 26 343 307 295 302 45 40 29 35 36 16 350 346 349 340 329 324 328 329 331 332 333 329 327 328 328 330 333 334 331 325 317 307 301 296 294 293 295 298 302 307 311 313 314 312 309 306 304 302 302 301 301
53 54 61 64 63 60 56 48 43 36 25 16 20 27 34 26 18 16 38 65 73 73 59 125 130 125 107 33 18 21 31 48 54 43 9 324 297 285 259 81 60 31 21 19 356 328 327 325 324 325 330 332 332 332 332 333 336 340 348 354 359 3 6 4 2 359 354 348 343 339 333 330 329 328 328 328 326 324 320 315 311 307 305 303 302 301
50 52 57 59 60 60 58 47 36 27 20 16 19 25 31 26 19 18 29 50 66 81 95 121 131 132 133 112 39 18 23 42 48 33 353 313 293 280 259 122 100 76 29 344 306 287 293 310 324 333 336 333 333 335 339 348 1 13 21 24 24 24 24 21 21 20 17 13 9 4 357 354 350 347 344 340 336 331 326 321 316 312 309 307 305 303
50 49 46 42 44 54 59 47 35 26 22 17 17 22 28 25 24 23 27 36 43 49 59 59 61 69 91 98 53 8 17 42 50 41 339 299 288 283 279 105 95 87 49 296 277 273 294 331 343 341 336 332 337 350 7 21 30 34 35 33 30 28 26 23 21 19 16 13 8 3 358 355 352 349 346 342 339 335 331 327 323 319 316 313 310 308
57 51 41 31 36 50 61 50 40 29 23 14 15 24 35 33 32 31 31 35 37 39 52 61 53 36 26 1 338 339 7 41 50 47 283 271 272 274 269 112 95 78 11 284 273 281 22 19 357 334 322 338 358 17 32 37 39 38 35 30 27 24 22 18 16 13 9 4 359 354 350 347 345 342 340 338 337 335 333 331 329 326 324 321 317 314
64 57 40 24 24 40 57 52 42 33 26 18 20 30 40 42 40 38 28 23 19 25 36 52 46 29 8 344 327 319 349 70 80 145 247 257 266 269 266 117 102 93 344 285 295 346 49 42 354 295 302 360 17 27 34 37 37 35 30 27 24 21 19 16 12 8 3 358 353 349 345 343 340 337 335 334 334 333 333 333 333 332 330 327 323 320
60 56 39 28 29 41 57 63 57 47 42 35 36 44 45 44 44 38 23 12 5 8 13 22 18 350 317 300 289 274 218 164 165 179 196 246 269 276 288 73 92 98 209 276 290 311 10 191 208 267 341 9 18 24 29 31 31 29 27 25 22 19 16 12 7 3 358 354 350 347 344 342 339 337 335 333 332 333 333 334 335 335 333 330 327 324
55 53 44 37 39 47 72 127 138 114 91 83 80 78 75 56 42 30 9 356 346 340 331 317 306 294 271 266 266 258 223 189 175 169 161 203 252 274 316 41 72 84 239 269 280 293 317 322 325 349 359 9 13 19 23 26 27 26 24 22 20 16 11 7 2 359 355 352 350 348 345 343 341 339 338 336 335 335 335 336 336 336 334 331 329 326
48 42 26 16 324 237 219 219 213 197 170 156 154 162 179 195 212 239 273 288 292 290 291 315 328 324 299 279 274 272 259 210 179 169 154 187 230 266 338 39 65 71 274 267 269 289 339 335 335 341 350 2 9 16 21 24 24 23 21 18 14 10 6 2 359 356 354 352 350 348 347 345 344 343 342 341 340 339 339 339 338 337 335 331 329 327
21 8 333 293 276 266 247 247 249 245 213 192 184 184 192 204 214 223 225 242 258 272 349 24 4 325 298 292 288 290 316 336 324 178 148 163 215 293 343 45 68 64 283 278 283 313 8 334 322 325 338 358 10 16 20 22 21 19 16 12 9 5 2 359 356 354 352 351 350 348 347 346 346 345 344 344 343 342 341 340 339 337 334 331 328 325
12 7 358 346 336 331 330 325 322 314 296 255 212 194 186 182 166 122 81 12 300 67 76 68 21 286 287 292 290 295 327 344 353 14 133 124 96 1 351 29 45 29 306 301 311 335 8 325 315 318 331 354 11 16 19 19 16 13 10 6 3 0 357 355 353 351 350 349 348 348 347 346 345 345 344 344 343 342 341 339 338 336 334 330 327 324
14 13 14 14 14 13 12 8 0 349 335 320 286 203 152 131 113 96 77 19 126 117 113 119 193 274 290 292 284 290 329 1 5 4 3 102 89 53 2 11 16 8 334 319 317 320 327 308 303 308 323 341 4 13 15 14 12 8 4 1 358 355 353 351 350 348 348 347 346 346 345 344 344 343 343 342 341 340 339 338 337 336 334 331 328 323
15 17 18 20 20 20 19 15 11 10 17 22 28 39 61 79 84 79 31 292 150 119 122 141 174 223 259 263 268 285 348 14 7 353 335 71 81 61 6 5 9 9 353 335 325 323 331 318 303 303 321 339 358 8 12 10 8 3 359 356 353 350 348 347 346 345 345 344 344 343 342 342 342 341 341 340 339 339 338 337 336 335 334 333 329 322
16 16 18 17 17 17 17 15 18 28 43 45 45 44 43 45 48 42 11 352 20 72 94 120 165 210 233 253 271 311 24 25 6 352 350 49 66 45 6 12 15 14 4 349 340 336 337 322 311 310 328 345 359 7 8 6 3 358 353 350 348 346 345 344 343 342 342 341 341 340 340 339 339 339 339 338 338 337 337 336 336 336 335 332 327 322
11 11 11 10 10 12 14 16 27 40 50 49 47 45 42 43 42 37 19 15 27 47 59 51 37 344 268 285 313 359 39 24 7 0 11 43 51 30 10 18 20 18 17 14 1 342 326 312 304 307 327 349 358 2 0 359 355 352 347 346 344 342 341 341 340 340 339 338 338 337 336 336 336 336 336 336 336 335 335 335 335 335 333 330 325 321
3 4 3 1 5 10 18 24 35 44 48 46 44 43 41 42 41 36 26 26 31 39 45 40 29 12 348 16 38 45 47 14 11 14 28 48 57 39 21 21 18 19 38 64 53 351 313 303 302 313 338 351 352 351 349 348 346 344 340 339 337 335 336 337 338 337 337 336 335 334 333 333 333 334 334 333 333 333 333 333 333 333 330 327 323 319
4 6 6 8 14 23 30 33 36 40 43 42 40 38 37 38 38 37 33 31 32 35 37 35 26 16 7 32 94 158 175 350 12 21 34 47 57 45 36 29 11 5 43 102 120 150 268 286 301 319 340 343 338 334 337 339 338 335 332 330 327 327 332 335 336 336 334 333 332 331 330 330 330 331 331 331 331 330 330 331 331 331 329 325 320 316
12 15 17 23 31 37 39 37 37 38 40 38 36 35 34 34 34 35 35 33 31 31 32 29 22 13 4 1 339 251 234 324 14 21 30 40 45 24 17 23 4 351 1 92 134 163 206 255 289 310 321 320 319 321 327 330 328 326 324 323 320 322 330 334 334 332 329 329 328 327 327 327 327 328 328 328 328 328 328 329 329 329 329 325 320 317
20 23 26 31 36 40 40 38 38 39 38 36 32 31 30 29 29 28 26 26 24 24 29 30 25 14 4 353 335 317 298 325 1 11 20 33 42 15 352 13 7 358 4 12 19 224 232 260 288 306 305 307 310 315 320 319 317 314 314 316 316 319 325 330 330 326 323 324 322 322 323 323 324 324 325 325 325 325 326 327 328 328 329 326 323 321
28 29 30 31 34 37 37 36 36 35 34 30 27 24 22 21 20 18 16 12 9 8 14 23 26 20 9 352 332 318 306 307 337 350 2 21 41 33 349 314 46 41 23 358 351 334 300 292 301 309 308 309 309 309 308 302 302 304 305 310 313 316 320 323 323 320 318 318 317 315 317 317 318 319 320 322 322 323 325 326 327 328 328 327 326 324
36 34 33 31 32 35 35 33 31 29 26 20 15 11 10 10 8 7 5 2 359 358 358 355 349 332 240 233 268 285 291 292 314 331 347 9 65 105 48 239 195 111 54 350 337 323 309 302 304 307 308 305 305 305 300 294 297 303 307 311 314 314 314 313 313 312 312 313 313 312 312 312 313 314 316 319 321 322 324 325 327 327 327 327 326 324
41 38 33 31 32 33 33 28 24 21 15 8 2 358 356 354 353 352 351 352 353 354 352 349 343 336 330 305 271 269 281 295 313 330 346 352 11 45 288 275 268 247 215 293 301 303 301 303 305 305 302 294 294 299 304 307 310 312 310 313 314 314 310 308 305 304 305 307 308 309 309 311 312 313 314 317 320 322 324 325 326 326 326 325 323 322
41 37 31 29 29 29 27 22 16 10 4 356 349 344 341 340 340 341 341 344 348 350 348 345 340 335 335 332 325 315 309 324 332 339 346 344 340 325 303 296 294 291 281 284 288 294 297 298 300 302 300 292 293 297 305 311 314 313 310 310 309 307 303 302 302 303 305 306 307 309 310 313 314 315 315 319 322 323 323 324 324 325 324 323 321 319
37 33 26 28 27 26 19 12 3 355 348 341 337 332 329 331 333 336 336 336 339 340 338 335 331 329 329 329 332 335 338 338 338 339 341 339 334 324 312 303 297 294 288 284 284 286 285 286 288 292 296 297 300 302 306 309 309 310 311 310 307 302 298 301 305 307 309 310 312 314 315 317 317 317 316 319 321 322 321 320 320 322 323 321 319 317
36 31 22 23 24 20 11 357 346 339 336 334 334 336 339 340 340 338 336 335 334 332 329 330 331 330 327 329 334 337 339 334 331 331 333 332 328 321 319 306 301 298 297 289 281 276 274 276 279 282 287 293 298 301 303 304 305 308 311 310 309 307 309 312 312 313 315 317 319 320 320 319 319 317 316 317 317 317 316 314 315 316 317 317 316 315
38 30 10 8 9 8 3 349 342 342 347 347 350 353 354 352 346 342 340 342 339 335 334 342 345 344 339 336 331 327 327 321 322 324 324 322 316 310 310 301 303 304 303 291 278 268 264 269 273 277 279 283 287 290 291 293 296 300 303 303 304 307 312 315 318 321 324 323 323 322 320 318 317 316 314 312 310 307 306 306 306 307 308 308 308 310
43 36 12 359 356 354 348 348 352 357 2 3 0 356 350 350 347 345 344 345 343 340 343 350 354 352 347 336 327 323 320 318 320 324 326 324 322 315 301 303 308 312 312 302 291 280 269 269 271 273 274 277 279 281 283 285 290 295 300 303 308 311 312 314 318 324 326 322 319 317 317 314 312 310 309 307 305 303 301 301 301 302 305 306 305 303
32 25 1 348 340 342 346 356 0 3 3 2 355 348 342 343 345 345 344 346 346 346 345 346 351 355 352 336 328 322 320 317 320 324 329 323 319 316 319 320 331 339 342 333 321 311 299 292 285 278 275 278 281 284 288 294 298 303 307 311 316 318 313 312 316 319 317 313 312 310 309 306 304 303 303 302 302 302 302 301 301 301 303 303 303 302
17 356 343 340 344 355 6 7 4 360 358 355 348 341 335 339 343 345 346 345 345 346 342 341 352 3 5 343 329 322 320 319 321 324 324 324 329 340 359 350 349 350 356 346 334 323 319 313 306 300 299 297 294 293 295 299 301 302 302 306 308 307 299 304 310 313 310 307 305 303 301 300 300 300 301 301 301 301 302 302 303 302 302 301 301 301
1 352 350 355 3 9 9 2 358 355 355 352 345 337 333 337 343 347 343 342 344 346 335 339 348 356 354 339 329 325 325 325 326 326 322 324 334 344 356 355 351 348 349 339 324 313 310 306 304 304 307 305 300 296 294 296 297 296 296 299 300 296 289 295 300 304 303 301 299 297 295 296 300 302 303 303 303 304 305 306 307 307 306 306 305 304
11 3 355 357 1 3 357 353 353 355 355 349 342 335 331 336 339 339 335 338 343 343 338 341 345 346 340 331 329 329 332 328 326 322 320 321 329 339 348 345 340 335 329 317 304 288 274 276 286 295 305 305 299 293 288 291 292 293 293 295 296 293 291 291 291 291 290 291 291 291 292 296 301 304 304 305 306 307 308 308 309 309 310 310 309 307
13 4 353 350 348 346 339 345 353 359 358 345 335 329 331 334 335 334 334 340 344 344 341 340 339 334 326 322 324 326 328 325 322 320 318 318 323 329 334 331 328 324 316 309 303 294 278 272 273 280 291 294 291 286 282 281 281 282 284 286 286 286 288 285 283 280 279 281 284 288 296 306 311 312 311 311 311 310 310 311 311 310 310 309 309 308
12 2 351 347 345 340 335 342 352 1 354 338 329 329 338 340 341 342 340 344 343 340 337 334 328 320 315 316 318 321 321 320 318 319 314 316 320 325 327 322 318 316 313 311 305 300 289 278 267 258 249 254 263 271 276 275 273 271 273 277 279 281 281 279 277 276 277 278 283 293 311 325 328 327 324 320 315 312 311 311 310 309 308 308 308 309
10 358 347 347 345 339 332 335 343 347 340 327 323 327 337 342 345 345 341 339 336 333 328 320 316 312 309 312 313 314 313 312 310 310 308 315 320 323 322 320 320 323 324 319 315 309 300 291 276 260 242 236 242 253 266 268 267 266 267 270 273 276 279 282 283 285 289 297 310 327 343 340 336 331 326 318 313 309 308 307 306 305 305 307 307 308
358 350 345 347 342 332 322 328 333 333 324 317 314 318 327 337 343 343 338 334 331 326 320 316 313 310 307 306 306 306 305 302 303 306 309 318 321 322 319 322 328 333 336 332 329 326 325 320 310 294 272 262 255 250 250 258 265 268 269 270 274 281 290 297 306 316 325 329 336 340 341 333 327 322 317 311 307 304 303 302 301 301 304 307 307 307
345 341 342 343 335 323 315 320 322 320 313 311 314 320 328 335 338 337 337 335 332 326 319 316 312 307 302 299 298 297 296 296 301 306 310 314 315 314 317 324 332 337 339 336 334 332 332 331 328 319 308 296 291 283 247 251 275 292 296 294 296 299 305 310 318 325 332 332 331 327 323 317 314 311 310 307 304 302 301 299 299 300 303 307 307 306